FLOCK 4BE-29

Last updated on Mon Sep 16 2024 00:02:03 GMT+0000 (Coordinated Universal Time)

1 60509U 24149AT 24259.02257463 .00020039 00000+0 95467-3 0 9998 2 60509 97.4444 334.1645 0005016 51.9250 308.2436 15.19147924 4434
UTC large
Height (km)
Speed (km/s)
/
Latitude / Longitude
Inclination (degrees)
Orbital Period (minutes)
Azimuth
Elevation
Range (km)
Doppler Factor

Next 0 passes for location: London (51.5072 / 0.1276)

Sorry there are no passes over London.